"Pseudo-MPEC" for C9HZUU2

Created 2023 Sep 24 14:22:14 UT using Find_Orb

Click here for an explanation of pseudo-MPECs

 
 Astrometry: 
     C9HZUU2*1C2023 09 19.29964701 00 45.565+05 47 04.56   ~9J87 21.87GVNEOCPG96
     C9HZUU2 1C2023 09 19.30482701 00 49.169+05 47 17.66   ~9J87 21.73GVNEOCPG96
     C9HZUU2 1C2023 09 19.31000501 00 52.909+05 47 31.27   ~9J87 21.47GVNEOCPG96
     C9HZUU2 1C2023 09 19.31517701 00 56.538+05 47 44.66   ~9J87 21.10GVNEOCPG96
     C9HZUU2 KC2023 09 19.38840301 01 47.294+05 50 51.14   ~9JA7 21.14GVNEOCPV06
     C9HZUU2 KC2023 09 19.39071701 01 48.868+05 50 57.01   ~9JA7 21.68GVNEOCPV06
     C9HZUU2 1C2023 09 20.30651801 12 11.052+06 22 51.42   ~9K87 21.44GVNEOCPG96
     C9HZUU2 1C2023 09 20.30828701 12 11.884+06 22 54.62   ~9K87 21.74GVNEOCPG96
     C9HZUU2 1C2023 09 20.31005401 12 12.755+06 22 57.29   ~9K87 22.01GVNEOCPG96
     C9HZUU2 1C2023 09 20.31182001 12 13.579+06 23 00.89   ~9K87 21.13GVNEOCPG96

Station data:
(G96) Mt. Lemmon Survey  (N32.442751 W110.788720)  US/Arizona.  Observer E.
   J. Christensen. 1.5-m reflector + 10K CCD.
(V06) Catalina Sky Survey-Kuiper  (N32.416844 W110.732550)  US/Arizona.
   Observers T. A. Pruyne, B. M. Africano, E. J. Christensen, G. A. Farneth,
   D. C. Fuls, A. R. Gibbs, A. D. Grauer, H. Gröller, J. A. Johnson, R. A.
   Kowalski, S. M. Larson, G. J. Leonard, D. Rankin, R. L. Seaman, F. C.
   Shelly, K. W. Wierzchoś. 1.55-m reflector + CCD.

Orbital elements:  C9HZUU2
   Perihelion 2023 Aug 22.98400 +/- 0.118 TT = 23:36:57 (JD 2460179.48400)
Epoch 2023 Sep 20.0 TT = JDT 2460207.5   Earth MOID: 0.0020   Ma: 0.0205
M   7.99183925 +/- 0.14             (J2000 ecliptic)             AutoNEOCP
n   0.28525985 +/- 0.00405          Peri.  146.86758 +/- 0.14
a   2.28547043 +/- 0.0217           Node   175.42412 +/- 0.0028
e   0.5769943 +/- 0.0038            Incl.    1.04556 +/- 0.009
P   3.46                   H 28.29  G  0.15   U  9.0
q 0.96676701 +/- 0.000627    Q 3.60417386 +/- 0.0428
From 10 observations 2023 Sept. 19-20 (24.3 hr); mean residual 0".28
Residuals in arcseconds: 
230919 G96  .53+  .50+    230919 V06  .08+  .07-    230920 G96  .18+  .36-    
230919 G96  .72-  .11-    230919 V06  .06-  .11+    230920 G96  .16-  .08+    
230919 G96  .28+  .14-    230920 G96  .13+  .13+    
230919 G96  .13-  .32-    230920 G96  .15-  .15+    

Ephemerides (geocentric):
Date (UTC) HH   RA             Dec           delta  r     elong  mag " sig PA
---- --------  ------------   ------------  ------ ------ -----  --- --------
2023 09 24 14  01 35 24.111   +07 32 43.77  .05855 1.0570 156.0 23.3  125  79
2023 09 24 15  01 35 31.719   +07 33 04.81  .05880 1.0572 156.0 23.3  126  79
2023 09 24 16  01 35 39.259   +07 33 25.65  .05904 1.0574 156.0 23.3  128  79
2023 09 24 17  01 35 46.731   +07 33 46.28  .05928 1.0576 156.0 23.4  129  79
2023 09 24 18  01 35 54.136   +07 34 06.72  .05952 1.0579 156.0 23.4  130  79
2023 09 24 19  01 36 01.475   +07 34 26.95  .05977 1.0581 156.0 23.4  131  79
2023 09 24 20  01 36 08.749   +07 34 46.99  .06001 1.0583 156.1 23.4  132  79
2023 09 24 21  01 36 15.959   +07 35 06.84  .06025 1.0585 156.1 23.4  133  79
2023 09 24 22  01 36 23.104   +07 35 26.49  .06049 1.0587 156.1 23.4  134  79
2023 09 24 23  01 36 30.187   +07 35 45.96  .06074 1.0589 156.1 23.4  136  79
2023 09 25 00  01 36 37.207   +07 36 05.24  .06098 1.0591 156.1 23.4  137  79
2023 09 25 01  01 36 44.165   +07 36 24.34  .06122 1.0594 156.1 23.4  138  79
2023 09 25 02  01 36 51.063   +07 36 43.25  .06147 1.0596 156.1 23.4  139  79
2023 09 25 03  01 36 57.900   +07 37 01.98  .06171 1.0598 156.1 23.4  140  80
2023 09 25 04  01 37 04.677   +07 37 20.54  .06195 1.0600 156.1 23.5  141  80
2023 09 25 05  01 37 11.396   +07 37 38.92  .06220 1.0602 156.2 23.5  142  80
2023 09 25 06  01 37 18.056   +07 37 57.12  .06244 1.0605 156.2 23.5  143  80
2023 09 25 07  01 37 24.659   +07 38 15.16  .06268 1.0607 156.2 23.5  144  80
2023 09 25 08  01 37 31.204   +07 38 33.02  .06292 1.0609 156.2 23.5  145  80
2023 09 25 09  01 37 37.694   +07 38 50.72  .06317 1.0611 156.2 23.5  147  80
2023 09 25 10  01 37 44.127   +07 39 08.25  .06341 1.0613 156.2 23.5  148  80
2023 09 25 11  01 37 50.505   +07 39 25.61  .06366 1.0615 156.2 23.5  149  80
2023 09 25 12  01 37 56.829   +07 39 42.82  .06390 1.0618 156.2 23.5  150  80
2023 09 25 13  01 38 03.098   +07 39 59.86  .06414 1.0620 156.3 23.5  151  80
2023 09 25 14  01 38 09.314   +07 40 16.75  .06439 1.0622 156.3 23.5  152  80
2023 09 25 15  01 38 15.477   +07 40 33.47  .06463 1.0624 156.3 23.5  153  80
2023 09 25 16  01 38 21.588   +07 40 50.05  .06487 1.0626 156.3 23.6  154  80
2023 09 25 17  01 38 27.647   +07 41 06.46  .06512 1.0629 156.3 23.6  155  80
2023 09 25 18  01 38 33.655   +07 41 22.73  .06536 1.0631 156.3 23.6  156  80
2023 09 25 19  01 38 39.613   +07 41 38.85  .06561 1.0633 156.4 23.6  157  80
2023 09 25 20  01 38 45.520   +07 41 54.82  .06585 1.0635 156.4 23.6  158  80
2023 09 25 21  01 38 51.377   +07 42 10.64  .06609 1.0637 156.4 23.6  159  80
2023 09 25 22  01 38 57.186   +07 42 26.32  .06634 1.0640 156.4 23.6  160  80
2023 09 25 23  01 39 02.946   +07 42 41.85  .06658 1.0642 156.4 23.6  161  80
2023 09 26 00  01 39 08.657   +07 42 57.24  .06683 1.0644 156.4 23.6  162  80
2023 09 26 01  01 39 14.322   +07 43 12.49  .06707 1.0646 156.5 23.6  163  80
2023 09 26 02  01 39 19.939   +07 43 27.61  .06731 1.0649 156.5 23.6  164  80
2023 09 26 03  01 39 25.509   +07 43 42.58  .06756 1.0651 156.5 23.6  165  80
2023 09 26 04  01 39 31.033   +07 43 57.42  .06780 1.0653 156.5 23.6  166  80
2023 09 26 05  01 39 36.512   +07 44 12.12  .06805 1.0655 156.5 23.7  167  80
2023 09 26 06  01 39 41.945   +07 44 26.69  .06829 1.0657 156.5 23.7  168  80
2023 09 26 07  01 39 47.334   +07 44 41.13  .06854 1.0660 156.6 23.7  169  80
2023 09 26 08  01 39 52.678   +07 44 55.44  .06878 1.0662 156.6 23.7  170  80
2023 09 26 09  01 39 57.979   +07 45 09.62  .06903 1.0664 156.6 23.7  171  80
2023 09 26 10  01 40 03.236   +07 45 23.67  .06927 1.0666 156.6 23.7  172  80
2023 09 26 11  01 40 08.450   +07 45 37.59  .06952 1.0669 156.6 23.7  173  80
2023 09 26 12  01 40 13.621   +07 45 51.39  .06976 1.0671 156.7 23.7  174  80
2023 09 26 13  01 40 18.750   +07 46 05.07  .07001 1.0673 156.7 23.7  175  80